"Period start","avg(HW err(1)/warn(2) (#))","avg(Visibility (m))","avg(Weather code (#))","avg(Precip intensity (mm/h))","min(HW err(1)/warn(2) (#))","max(HW err(1)/warn(2) (#))","std(HW err(1)/warn(2) (#))","med(HW err(1)/warn(2) (#))","min(Visibility (m))","max(Visibility (m))","std(Visibility (m))","med(Visibility (m))","min(Weather code (#))","max(Weather code (#))","std(Weather code (#))","med(Weather code (#))","min(Precip intensity (mm/h))","max(Precip intensity (mm/h))","std(Precip intensity (mm/h))","med(Precip intensity (mm/h))"
2014-08-25 00:00:00,0,49735,0,0.00,0,0,0,0,48621,50000,530,50000,0,0,0,0,0.00,0.00,0.00,0.00
2014-08-25 00:10:00,0,49677,0,0.00,0,0,0,0,48136,50000,655,50000,0,0,0,0,0.00,0.00,0.00,0.00
2014-08-25 00:20:00,0,50000,0,0.00,0,0,0,0,50000,50000,0,50000,0,0,0,0,0.00,0.00,0.00,0.00
2014-08-25 00:30:00,0,48312,0,0.00,0,0,0,0,41410,50000,3090,50000,0,0,0,0,0.00,0.00,0.00,0.00
2014-08-25 00:40:00,0,46669,0,0.00,0,0,0,0,41698,50000,3210,47783,0,0,0,0,0.00,0.00,0.00,0.00
2014-08-25 00:50:00,0,49408,0,0.00,0,0,0,0,47070,50000,1152,50000,0,0,0,0,0.00,0.00,0.00,0.00
2014-08-25 01:00:00,0,45849,0,0.00,0,0,0,0,38298,50000,3897,46389,0,0,0,0,0.00,0.00,0.00,0.00
2014-08-25 01:10:00,0,41138,0,0.00,0,2,1,0,26716,50000,8242,43950,0,0,0,0,0.00,0.00,0.00,0.00
2014-08-25 01:20:00,0,44944,0,0.00,0,0,0,0,36164,50000,5152,47135,0,0,0,0,0.00,0.00,0.00,0.00
2014-08-25 01:30:00,0,42325,0,0.00,0,0,0,0,31728,50000,5735,41872,0,0,0,0,0.00,0.00,0.00,0.00
2014-08-25 01:40:00,0,40023,0,0.00,0,0,0,0,27843,50000,6459,41086,0,0,0,0,0.00,0.00,0.00,0.00
2014-08-25 01:50:00,0,41312,0,0.00,0,0,0,0,28161,50000,6825,42538,0,0,0,0,0.00,0.00,0.00,0.00
2014-08-25 02:00:00,0,39154,0,0.00,0,0,0,0,28321,47483,5689,39214,0,0,0,0,0.00,0.00,0.00,0.00
2014-08-25 02:10:00,0,43904,0,0.00,0,0,0,0,38629,50000,4199,43591,0,0,0,0,0.00,0.00,0.00,0.00
2014-08-25 02:20:00,0,39125,0,0.00,0,0,0,0,28913,50000,7290,37806,0,0,0,0,0.00,0.00,0.00,0.00
2014-08-25 02:30:00,0,44738,0,0.00,0,0,0,0,39593,50000,4424,42998,0,0,0,0,0.00,0.00,0.00,0.00
2014-08-25 02:40:00,0,45040,0,0.00,0,0,0,0,34515,50000,4361,45544,0,0,0,0,0.00,0.00,0.00,0.00
2014-08-25 02:50:00,0,36134,0,0.00,0,0,0,0,25796,50000,8837,33886,0,0,0,0,0.00,0.00,0.00,0.00
2014-08-25 03:00:00,0,43023,0,0.00,0,0,0,0,32846,50000,5063,41910,0,0,0,0,0.00,0.00,0.00,0.00
2014-08-25 03:10:00,0,33118,0,0.00,0,0,0,0,23251,46591,7675,34018,0,0,0,0,0.00,0.00,0.00,0.00
2014-08-25 03:20:00,0,46480,0,0.00,0,0,0,0,32441,50000,5206,48894,0,0,0,0,0.00,0.00,0.00,0.00
2014-08-25 03:30:00,0,43080,0,0.00,0,0,0,0,34796,50000,4719,44048,0,0,0,0,0.00,0.00,0.00,0.00
2014-08-25 03:40:00,0,43450,0,0.00,0,0,0,0,35980,50000,5301,45334,0,0,0,0,0.00,0.00,0.00,0.00
"Period start","avg(HW err(1)/warn(2) (#))","avg(Visibility (m))","avg(Weather code (#))","avg(Precip intensity (mm/h))","min(HW err(1)/warn(2) (#))","max(HW err(1)/warn(2) (#))","std(HW err(1)/warn(2) (#))","med(HW err(1)/warn(2) (#))","min(Visibility (m))","max(Visibility (m))","std(Visibility (m))","med(Visibility (m))","min(Weather code (#))","max(Weather code (#))","std(Weather code (#))","med(Weather code (#))","min(Precip intensity (mm/h))","max(Precip intensity (mm/h))","std(Precip intensity (mm/h))","med(Precip intensity (mm/h))"
2014-08-25 07:50:00,0,49310,0,0.00,0,0,0,0,46414,50000,1166,50000,0,0,0,0,0.00,0.00,0.00,0.00
2014-08-25 08:00:00,0,49662,0,0.00,0,0,0,0,47867,50000,705,50000,0,0,0,0,0.00,0.00,0.00,0.00
2014-08-25 08:10:00,0,43580,0,0.00,0,0,0,0,35768,50000,4044,43899,0,0,0,0,0.00,0.00,0.00,0.00
2014-08-25 08:20:00,0,48550,0,0.00,0,0,0,0,42082,50000,2521,50000,0,0,0,0,0.00,0.00,0.00,0.00
2014-08-25 08:30:00,0,46971,0,0.00,0,0,0,0,34769,50000,4534,49222,0,0,0,0,0.00,0.00,0.00,0.00
2014-08-25 08:40:00,0,49980,0,0.00,0,0,0,0,49804,50000,59,50000,0,0,0,0,0.00,0.00,0.00,0.00
2014-08-25 08:50:00,0,49916,0,0.00,0,0,0,0,49159,50000,252,50000,0,0,0,0,0.00,0.00,0.00,0.00
2014-08-25 09:00:00,0,50000,0,0.00,0,0,0,0,50000,50000,0,50000,0,0,0,0,0.00,0.00,0.00,0.00
2014-08-25 09:10:00,0,49688,0,0.00,0,0,0,0,47878,50000,673,50000,0,0,0,0,0.00,0.00,0.00,0.00
2014-08-25 09:20:00,0,49176,0,0.00,0,0,0,0,46097,50000,1484,50000,0,0,0,0,0.00,0.00,0.00,0.00
2014-08-25 09:30:00,0,49939,0,0.00,0,0,0,0,49390,50000,183,50000,0,0,0,0,0.00,0.00,0.00,0.00
2014-08-25 09:40:00,0,49212,0,0.00,0,0,0,0,45706,50000,1583,50000,0,0,0,0,0.00,0.00,0.00,0.00
2014-08-25 09:50:00,0,47723,0,0.00,0,0,0,0,42768,50000,2788,49716,0,0,0,0,0.00,0.00,0.00,0.00
2014-08-25 10:00:00,0,48891,0,0.00,0,0,0,0,44654,50000,1787,49883,0,0,0,0,0.00,0.00,0.00,0.00
2014-08-25 10:10:00,0,49284,0,0.00,0,0,0,0,46314,50000,1145,50000,0,0,0,0,0.00,0.00,0.00,0.00
2014-08-25 10:20:00,0,49630,0,0.00,0,0,0,0,46869,50000,936,50000,0,0,0,0,0.00,0.00,0.00,0.00
2014-08-25 10:30:00,0,49163,0,0.00,0,0,0,0,46713,50000,1293,50000,0,0,0,0,0.00,0.00,0.00,0.00
2014-08-25 10:40:00,0,49886,0,0.00,0,0,0,0,48865,50000,340,50000,0,0,0,0,0.00,0.00,0.00,0.00
2014-08-25 10:50:00,0,49843,0,0.00,0,0,0,0,48808,50000,363,50000,0,0,0,0,0.00,0.00,0.00,0.00
2014-08-25 11:00:00,0,46277,0,0.00,0,0,0,0,25190,50000,7500,49854,0,0,0,0,0.00,0.00,0.00,0.00
2014-08-25 11:10:00,0,48880,0,0.00,0,0,0,0,44683,50000,1886,50000,0,0,0,0,0.00,0.00,0.00,0.00
2014-08-25 11:20:00,0,49834,0,0.00,0,0,0,0,48675,50000,399,50000,0,0,0,0,0.00,0.00,0.00,0.00
2014-08-25 11:30:00,0,49988,0,0.00,0,0,0,0,49882,50000,35,50000,0,0,0,0,0.00,0.00,0.00,0.00
2014-08-25 11:40:00,0,50000,0,0.00,0,0,0,0,50000,50000,0,50000,0,0,0,0,0.00,0.00,0.00,0.00
2014-08-25 11:50:00,0,50000,0,0.00,0,0,0,0,50000,50000,0,50000,0,0,0,0,0.00,0.00,0.00,0.00
2014-08-25 12:00:00,0,49894,0,0.00,0,0,0,0,49029,50000,290,50000,0,0,0,0,0.00,0.00,0.00,0.00
2014-08-25 12:10:00,0,50000,0,0.00,0,0,0,0,50000,50000,0,50000,0,0,0,0,0.00,0.00,0.00,0.00
2014-08-25 12:20:00,0,50000,0,0.00,0,0,0,0,50000,50000,0,50000,0,0,0,0,0.00,0.00,0.00,0.00
2014-08-25 12:30:00,0,49953,0,0.00,0,0,0,0,49666,50000,104,50000,0,0,0,0,0.00,0.00,0.00,0.00
2014-08-25 12:40:00,0,50000,0,0.00,0,0,0,0,50000,50000,0,50000,0,0,0,0,0.00,0.00,0.00,0.00
2014-08-25 12:50:00,0,49951,0,0.00,0,0,0,0,49591,50000,122,50000,0,0,0,0,0.00,0.00,0.00,0.00
2014-08-25 13:00:00,0,50000,0,0.00,0,0,0,0,50000,50000,0,50000,0,0,0,0,0.00,0.00,0.00,0.00
2014-08-25 13:10:00,0,49251,0,0.00,0,0,0,0,44159,50000,1749,50000,0,0,0,0,0.00,0.00,0.00,0.00
2014-08-25 13:20:00,0,49278,0,0.00,0,0,0,0,45565,50000,1372,50000,0,0,0,0,0.00,0.00,0.00,0.00
2014-08-25 13:30:00,0,49798,0,0.00,0,0,0,0,48087,50000,571,50000,0,0,0,0,0.00,0.00,0.00,0.00
2014-08-25 13:40:00,0,49944,0,0.00,0,0,0,0,49440,50000,168,50000,0,0,0,0,0.00,0.00,0.00,0.00
2014-08-25 13:50:00,0,49912,0,0.00,0,0,0,0,49116,50000,265,50000,0,0,0,0,0.00,0.00,0.00,0.00
2014-08-25 14:00:00,0,50000,0,0.00,0,0,0,0,50000,50000,0,50000,0,0,0,0,0.00,0.00,0.00,0.00
2014-08-25 14:10:00,0,49653,0,0.00,0,0,0,0,46528,50000,1042,50000,0,0,0,0,0.00,0.00,0.00,0.00
2014-08-25 14:20:00,0,49945,0,0.00,0,0,0,0,49449,50000,165,50000,0,0,0,0,0.00,0.00,0.00,0.00
2014-08-25 14:30:00,0,50000,0,0.00,0,0,0,0,50000,50000,0,50000,0,0,0,0,0.00,0.00,0.00,0.00
2014-08-25 14:40:00,0,50000,0,0.00,0,0,0,0,50000,50000,0,50000,0,0,0,0,0.00,0.00,0.00,0.00
2014-08-25 14:50:00,0,50000,0,0.00,0,0,0,0,50000,50000,0,50000,0,0,0,0,0.00,0.00,0.00,0.00
2014-08-25 15:00:00,0,50000,0,0.00,0,0,0,0,50000,50000,0,50000,0,0,0,0,0.00,0.00,0.00,0.00
2014-08-25 15:10:00,0,49921,0,0.00,0,0,0,0,49207,50000,238,50000,0,0,0,0,0.00,0.00,0.00,0.00
2014-08-25 15:20:00,0,49792,0,0.00,0,0,0,0,48143,50000,554,50000,0,0,0,0,0.00,0.00,0.00,0.00
2014-08-25 15:30:00,0,49980,0,0.00,0,0,0,0,49802,50000,59,50000,0,0,0,0,0.00,0.00,0.00,0.00
2014-08-25 15:40:00,0,49986,0,0.00,0,0,0,0,49858,50000,43,50000,0,0,0,0,0.00,0.00,0.00,0.00
2014-08-25 15:50:00,0,49816,0,0.00,0,0,0,0,49057,50000,368,50000,0,0,0,0,0.00,0.00,0.00,0.00
2014-08-25 16:00:00,0,50000,0,0.00,0,0,0,0,50000,50000,0,50000,0,0,0,0,0.00,0.00,0.00,0.00
2014-08-25 16:10:00,0,50000,0,0.00,0,0,0,0,50000,50000,0,50000,0,0,0,0,0.00,0.00,0.00,0.00
2014-08-25 16:20:00,0,49816,0,0.00,0,0,0,0,48160,50000,552,50000,0,0,0,0,0.00,0.00,0.00,0.00
2014-08-25 16:30:00,0,49949,0,0.00,0,0,0,0,49486,50000,154,50000,0,0,0,0,0.00,0.00,0.00,0.00
2014-08-25 16:40:00,0,49740,0,0.00,0,0,0,0,47403,50000,779,50000,0,0,0,0,0.00,0.00,0.00,0.00
2014-08-25 16:50:00,0,50000,0,0.00,0,0,0,0,50000,50000,0,50000,0,0,0,0,0.00,0.00,0.00,0.00
2014-08-25 17:00:00,0,50000,0,0.00,0,0,0,0,50000,50000,0,50000,0,0,0,0,0.00,0.00,0.00,0.00
2014-08-25 17:10:00,0,50000,0,0.00,0,0,0,0,50000,50000,0,50000,0,0,0,0,0.00,0.00,0.00,0.00
2014-08-25 17:20:00,0,49936,0,0.00,0,0,0,0,49363,50000,191,50000,0,0,0,0,0.00,0.00,0.00,0.00
2014-08-25 17:30:00,0,49922,0,0.00,0,0,0,0,49225,50000,232,50000,0,0,0,0,0.00,0.00,0.00,0.00
2014-08-25 17:40:00,0,49954,0,0.00,0,0,0,0,49538,50000,139,50000,0,0,0,0,0.00,0.00,0.00,0.00
2014-08-25 17:50:00,0,50000,0,0.00,0,0,0,0,50000,50000,0,50000,0,0,0,0,0.00,0.00,0.00,0.00
2014-08-25 18:00:00,0,50000,0,0.00,0,0,0,0,50000,50000,0,50000,0,0,0,0,0.00,0.00,0.00,0.00
2014-08-25 18:10:00,0,50000,0,0.00,0,0,0,0,50000,50000,0,50000,0,0,0,0,0.00,0.00,0.00,0.00
2014-08-25 18:20:00,0,50000,0,0.00,0,0,0,0,50000,50000,0,50000,0,0,0,0,0.00,0.00,0.00,0.00
2014-08-25 18:30:00,0,49945,0,0.00,0,0,0,0,49452,50000,164,50000,0,0,0,0,0.00,0.00,0.00,0.00
2014-08-25 18:40:00,0,49968,0,0.00,0,0,0,0,49676,50000,97,50000,0,0,0,0,0.00,0.00,0.00,0.00
2014-08-25 18:50:00,0,49949,0,0.00,0,0,0,0,49486,50000,154,50000,0,0,0,0,0.00,0.00,0.00,0.00
2014-08-25 19:00:00,0,50000,0,0.00,0,0,0,0,50000,50000,0,50000,0,0,0,0,0.00,0.00,0.00,0.00
2014-08-25 19:10:00,0,49136,0,0.00,0,0,0,0,44430,50000,1816,50000,0,0,0,0,0.00,0.00,0.00,0.00
2014-08-25 19:20:00,0,49611,0,0.00,0,0,0,0,46113,50000,1166,50000,0,0,0,0,0.00,0.00,0.00,0.00
2014-08-25 19:30:00,0,49870,0,0.00,0,0,0,0,48701,50000,390,50000,0,0,0,0,0.00,0.00,0.00,0.00
2014-08-25 19:40:00,0,49922,0,0.00,0,0,0,0,49216,50000,235,50000,0,0,0,0,0.00,0.00,0.00,0.00
2014-08-25 19:50:00,0,50000,0,0.00,0,0,0,0,50000,50000,0,50000,0,0,0,0,0.00,0.00,0.00,0.00
2014-08-25 20:00:00,0,50000,0,0.00,0,0,0,0,50000,50000,0,50000,0,0,0,0,0.00,0.00,0.00,0.00
2014-08-25 20:10:00,0,50000,0,0.00,0,0,0,0,50000,50000,0,50000,0,0,0,0,0.00,0.00,0.00,0.00
2014-08-25 20:20:00,0,50000,0,0.00,0,0,0,0,50000,50000,0,50000,0,0,0,0,0.00,0.00,0.00,0.00
2014-08-25 20:30:00,0,50000,0,0.00,0,0,0,0,50000,50000,0,50000,0,0,0,0,0.00,0.00,0.00,0.00
2014-08-25 20:40:00,0,49819,0,0.00,0,0,0,0,48268,50000,517,50000,0,0,0,0,0.00,0.00,0.00,0.00
2014-08-25 20:50:00,0,49879,0,0.00,0,0,0,0,49166,50000,263,50000,0,0,0,0,0.00,0.00,0.00,0.00
2014-08-25 21:00:00,0,49621,0,0.00,0,0,0,0,47176,50000,864,50000,0,0,0,0,0.00,0.00,0.00,0.00
2014-08-25 21:10:00,0,49362,0,0.00,0,0,0,0,45555,50000,1394,50000,0,0,0,0,0.00,0.00,0.00,0.00
2014-08-25 21:20:00,0,50000,0,0.00,0,0,0,0,50000,50000,0,50000,0,0,0,0,0.00,0.00,0.00,0.00
2014-08-25 21:30:00,0,49878,0,0.00,0,0,0,0,48776,50000,367,50000,0,0,0,0,0.00,0.00,0.00,0.00
2014-08-25 21:40:00,0,49608,0,0.00,0,0,0,0,46080,50000,1176,50000,0,0,0,0,0.00,0.00,0.00,0.00
2014-08-25 21:50:00,0,49998,0,0.00,0,0,0,0,49977,50000,7,50000,0,0,0,0,0.00,0.00,0.00,0.00
2014-08-25 22:00:00,0,50000,0,0.00,0,0,0,0,50000,50000,0,50000,0,0,0,0,0.00,0.00,0.00,0.00
2014-08-25 22:10:00,0,50000,0,0.00,0,0,0,0,50000,50000,0,50000,0,0,0,0,0.00,0.00,0.00,0.00
2014-08-25 22:20:00,0,49997,0,0.00,0,0,0,0,49967,50000,10,50000,0,0,0,0,0.00,0.00,0.00,0.00
2014-08-25 22:30:00,0,49715,0,0.00,0,0,0,0,48283,50000,585,50000,0,0,0,0,0.00,0.00,0.00,0.00
2014-08-25 22:40:00,0,49556,0,0.00,0,0,0,0,46042,50000,1178,50000,0,0,0,0,0.00,0.00,0.00,0.00
2014-08-25 22:50:00,0,49758,0,0.00,0,0,0,0,48211,50000,549,50000,0,0,0,0,0.00,0.00,0.00,0.00
2014-08-25 23:00:00,0,50000,0,0.00,0,0,0,0,50000,50000,0,50000,0,0,0,0,0.00,0.00,0.00,0.00
2014-08-25 23:10:00,0,49576,0,0.00,0,0,0,0,46609,50000,1021,50000,0,0,0,0,0.00,0.00,0.00,0.00
2014-08-25 23:20:00,0,48056,0,0.00,0,0,0,0,43557,50000,2566,50000,0,0,0,0,0.00,0.00,0.00,0.00
2014-08-25 23:30:00,0,46506,0,0.00,0,0,0,0,38606,50000,3284,45880,0,0,0,0,0.00,0.00,0.00,0.00
2014-08-25 23:40:00,0,49564,0,0.00,0,0,0,0,47887,50000,729,50000,0,0,0,0,0.00,0.00,0.00,0.00
2014-08-25 23:50:00,0,49241,0,0.00,0,0,0,0,44693,50000,1595,50000,0,0,0,0,0.00,0.00,0.00,0.00
